Location: Unspecified
(0.0000°N, 0.0000°E)
Time: 08:48:23
(UTC+00:00)

deb NOAA 5 - Pass Details

Date: 21 February 2026
Orbit: 1470 x 1835 km, 102.5° (Epoch: 10 March)

Event Time Altitude Azimuth Distance (km) Brightness Sun altitude
Rises 22:08:35 0° 190° (S) 4,790 ? -57.3°
Reaches altitude 10° 22:12:17 10° 203° (SSW) 3,750 ? -58.1°
Enters shadow 22:12:57 12° 207° (SSW) 3,583 ? -58.3°
